User: anonymous   Login
Location: Unspecified
(0.0000°N, 0.0000°E)
Time: 02:58:01
(UTC+00:00)
Language:

Tiros 8 - Orbit

View from above orbital plane
View from above orbital plane
View from above satellite
View from above satellite

Ground track
Ground track

The orbit data is extracted from the following two-line orbital elements,

1 00716U 63054A   18171.55269607 -.00000108  00000-0  13136-4 0  9998
2 00716  58.4958   3.4146 0030064  98.9268 261.5175 14.69437287907518
Epoch (UTC): 20 June 2018 13:15:52
Eccentricity: 0.0030064
inclination: 58.4958°
perigee height: 642 km
apogee height: 684 km
right ascension of ascending node: 3.4146°
argument of perigee: 98.9268°
revolutions per day: 14.69437287
mean anomaly at epoch: 261.5175°
orbit number at epoch: 90751

The dashed part of the orbit path shows where the satellite is in the earth's shadow,  

DLR